sat.trackr.live / text

‹ back to catalog

STARLINK-36189

NORAD 67010 · 2025-293H

PAYLOAD ACTIVE UNKNOWN

§ Identity

Operator
Country
US
Launch date
2025-12-10
Launch site
AFWTR
Launch vehicle
Mass (kg)
RCS (m²)

Purposes: comms

External: N2YO · Heavens-Above · Gunter

§ Orbital elements

Epoch: 2026-05-25T01:44:25.370304Z

Period
96.11 min
Inclination
70.0008°
Eccentricity
0.0003431
Mean motion
14.98338014 rev/d
Perigee alt
569.6 km
Apogee alt
574.4 km
Semi-major
6,950.2 km
B*
2.7556e-4
RAAN
261.6876°
Arg perigee
268.6707°
Mean anomaly
91.4059°
Rev number
2,633

§ Raw data

STARLINK-361891 67010U 25293H   26145.07251586  .00003197  00000+0  27556-3 0  99942 67010  70.0008 261.6876 0003431 268.6707  91.4059 14.98338014 26337

JSON: /api/v1/satellites/67010 · /tle

For live sub-satellite position, see the globe view (requires WebGL).

§ Visibility from observer

Set your observer location to see the next 7 days of passes ≥ 10°. The values pass through the URL so the page stays shareable.

No JS? Fill the form by hand. The geolocation button needs JavaScript.